Location: La Jolla Hermosa
(32.8181°N, 117.2703°W)
Time: 20:28:04
(UTC+00:00)

Daily predictions for brighter satellites

Satellite Brightness Start Highest point End
(mag) Time Altitude Azimuth Time Altitude Azimuth Time Altitude Azimuth
Cosmos 2082 Rocket 3.2 12:01:48 10° NW 12:06:04 23° W 12:07:19 21° WSW
Meteor 1-21 4.4 12:02:04 10° S 12:07:46 81° E 12:13:34 10° N
GP-B 3.0 12:04:21 10° N 12:08:48 87° W 12:13:13 10° S
CZ-2C R/B 3.7 12:09:10 10° NNW 12:12:26 28° WNW 12:13:57 21° WSW
Cosmos 2173 Rocket 4.4 12:07:20 10° N 12:13:23 66° E 12:19:26 10° SSE
Cosmos 1727 Rocket 4.2 12:08:44 10° SSW 12:14:40 47° W 12:20:41 10° N
Cosmos 1726 3.4 12:12:41 10° N 12:16:16 44° E 12:19:49 10° SSE
Cosmos 1484 Rocket 2.8 12:13:23 10° N 12:17:23 87° W 12:21:23 10° SSW
Cosmos 1125 Rocket 3.6 12:12:34 11° SSW 12:17:39 62° WNW 12:22:53 10° N
Cosmos 2151 Rocket 4.2 12:17:45 10° NNW 12:21:53 36° W 12:26:01 10° SSW
Cosmos 2263 4.4 12:18:01 11° SW 12:23:19 55° WNW 12:28:58 10° N
METEOR-M 4.1 12:20:06 10° N 12:25:27 80° WNW 12:30:47 10° SSW
SL-24 R/B 3.9 12:21:05 10° S 12:25:31 76° W 12:29:26 10° NNW
Cosmos 1766 4.2 12:22:30 10° NNW 12:25:53 27° W 12:29:16 10° SSW
Okean 2 Rocket 4.2 12:23:21 10° NW 12:26:49 23° W 12:30:14 10° SW
Cosmos 1459 Rocket 4.1 12:23:34 10° N 12:29:58 89° E 12:36:17 10° S
PSLV R/B 4.2 12:27:04 10° N 12:30:53 34° WNW 12:34:39 10° SW
FALCON 9 DEB 3.9 12:33:05 10° NNW 12:36:07 48° NE 12:39:08 10° ESE
Cosmos 1943 Rocket 3.9 12:33:53 10° W 12:37:09 15° WNW 12:40:25 10° NNW
Meteor 2-10 4.2 12:32:28 10° NNW 12:38:07 69° W 12:43:35 10° S
Cosmos 1975 Rocket 3.1 12:35:13 10° S 12:39:41 89° E 12:44:09 10° N
ALOS 2.9 12:36:46 10° N 12:40:59 35° WNW 12:45:13 10° SW
SL-4 R/B 2.4 12:39:33 10° NW 12:44:22 90° SW 12:48:58 10° SE
FALCON 9 DEB 2.8 12:42:51 10° NW 12:45:57 88° NE 12:49:03 10° SE
BREEZE-M DEB (TANK) 3.2 12:46:28 10° W 12:48:13 19° SW 12:50:04 10° S
H-2A R/B 2.5 12:44:42 10° SSE 12:48:49 66° ENE 12:53:02 10° N
ADEOS 3.6 12:45:31 10° NNE 12:50:45 87° WNW 12:55:58 10° SSW
Cosmos 2369 Rocket 3.5 12:47:46 10° WSW 12:51:57 22° WNW 12:56:11 10° N
